[[{"header":{"parameterUnit":"m.s-1","parameterCategory":1,"la1":30.2991,"la2":30.254,"lo1":-89.0895,"lo2":-89.0444,"dy":0.0017,"dx":0.0017,"nx":28,"ny":28,"refTime":"2023-10-28T03:00:00:Z","depth":0,"parameterNumber":2,"parameterNumberName":"U-component_of_WINDS"},"data":[0,0,0,0,0,0,0,0,0,0,0,0,0,0,0,0,0,0,0,0,0,0,0,0,0,0,0,0,0,0,0,0,0,0,0,0,0,0,0,0,0,0,0,0,0,0,0,0,0,0,0,0,0,0,0,0,0,0,-2.956,-2.9561,0,-2.9657,-2.9658,-2.966,-2.9614,-2.9611,-2.9609,-2.9607,-2.9705,-2.971,-2.9714,0,0,0,0,0,0,0,0,0,0,0,0,0,-2.9332,-2.9337,-2.9559,-2.9561,-2.9562,-2.9657,-2.9659,-2.966,-2.9614,-2.9611,-2.9608,-2.9606,-2.9703,-2.9709,-2.9715,0,0,0,0,0,0,0,0,0,0,0,0,0,-2.943,-2.9338,-2.9559,-2.9551,-2.9551,-2.9657,-2.9659,-2.966,-2.9615,-2.9611,-2.9608,-2.9604,-2.9701,-2.9708,-2.9716,-2.9835,0,0,-2.9738,-2.9741,0,0,0,0,0,0,0,0,-2.9425,-2.9439,-2.9551,-2.9552,-2.9552,-2.962,-2.9614,-2.9719,-2.9616,-2.9591,-2.9607,-2.9602,-2.9679,-2.9688,-2.9715,-2.984,-2.9844,-2.9739,-2.9743,-2.9746,-2.9749,0,0,0,0,0,0,0,-2.9418,-2.9434,-2.9598,-2.9552,-2.9553,-2.9542,-2.9552,-2.9634,-2.9654,-2.9593,-2.9589,-2.9602,-2.9679,-2.9708,-2.9717,-2.9845,-2.9739,-2.9745,-2.975,-2.9753,-3.0075,-3.0078,0,0,0,0,0,0,-2.9412,-2.9429,-2.9595,-2.9601,-2.9478,-2.9549,-2.956,-2.9602,-2.9653,-2.9658,-2.9605,-2.9599,-2.9697,-2.9708,-2.972,-2.9864,-2.9746,-2.9753,-2.9758,-3.007,-3.0075,-3.008,0,0,0,0,0,0,-2.9407,-2.9427,-2.9591,-2.9514,-2.9534,-2.9557,-2.9604,-2.9606,-2.9634,-2.9663,-2.9666,-2.9631,-2.9694,-2.971,-2.9807,-2.9867,-2.9757,-2.9763,-3.0066,-3.0072,-3.0078,-3.0152,0,0,0,0,0,0,-2.9401,-2.9426,-2.9471,-2.9516,-2.9539,-2.9677,-2.9608,-2.961,-2.9647,-2.9641,-2.9688,-2.9692,-2.9693,-2.9796,-2.9815,-2.9875,-2.9769,-3.006,-3.0068,-3.0076,-3.0144,-3.016,-3.0174,0,0,0,0,0,-2.9393,-2.9488,-2.9474,-2.9494,-2.9596,-2.9681,-2.9694,-2.9693,-2.9652,-2.9698,-2.9717,-2.969,-2.9857,-2.9807,-2.9827,-2.989,-3.0057,-3.0066,-3.0075,-3.0138,-3.0157,-3.0173,0,0,0,0,0,0,-2.9448,-2.9493,-2.9478,-2.959,-2.9632,-2.9673,-2.9731,-2.9713,-2.9767,-2.9759,-2.9755,-2.9766,-2.9868,-2.9889,-2.9832,-3.0009,-2.9951,-2.9964,-2.9992,-3.001,-3.0024,-3.0017,-2.9775,0,0,0,0,0,-2.9474,-2.9539,-2.9575,-2.967,-2.9692,-2.9708,-2.9745,-2.9741,-2.9784,-2.9801,-2.9827,-2.9869,-2.9931,-2.9971,-3.003,-3.0148,-3.0157,-3.0201,-3.0216,-3.0227,-3.0239,-3.0304,-3.0324,-3.011,-3.011,-3.011,0,0,-2.9526,-2.9559,-2.96,-2.9682,-2.9714,-2.9782,-2.9723,-2.9796,-2.9847,-2.9812,-2.9906,-2.9927,-2.9973,-3.0082,-3.0131,-3.0102,-3.03,-3.0239,-3.0248,-3.0254,-3.0315,-3.0336,-3.0354,-3.0117,-3.0116,-3.0115,0,0,-2.9657,-2.9689,-2.9772,-2.9806,-2.9856,-2.9866,-2.9886,-2.993,-2.9943,-3.0038,-3.0013,-3.0073,-3.0179,-3.0214,-3.0246,-3.0392,-3.037,-3.0412,-3.0487,-3.055,-3.0567,-3.0582,-3.0635,-3.0653,-3.0423,-3.0423,-3.0424,0,-2.9716,-2.9818,-2.9817,-2.9893,-2.993,-2.9903,-2.9988,-3.0021,-3.0087,-3.0113,-3.008,-3.0215,-3.0244,-3.0361,-3.0397,-3.0423,-3.0446,-3.0406,-3.0565,-3.058,-3.0594,-3.0644,-3.0663,-3.0428,-3.0428,-3.0427,-3.0427,0,-2.9888,-2.9959,-3.002,-3.0086,-3.013,-3.021,-3.0222,-3.0266,-3.0259,-3.0273,-3.0371,-3.0406,-3.0471,-3.0499,-3.0492,-3.0615,-3.0596,-3.0565,-3.0506,-3.0619,-3.0666,-3.0685,-3.0435,-3.0433,-3.0432,-3.0431,0,0,-3.0055,-3.0121,-3.0144,-3.0174,-3.0228,-3.0282,-3.0362,-3.0427,-3.0465,-3.0512,-3.0579,-3.0671,-3.0642,-3.0678,-3.0676,-3.0731,-3.0846,-3.0693,-3.0694,-3.072,-3.0984,-3.1008,-3.103,-3.0832,-3.0836,-3.0839,-3.0981,0,-3.0189,-3.0329,-3.0332,-3.046,-3.0525,-3.0502,-3.0571,-3.0612,-3.0628,-3.0685,-3.0702,-3.0768,-3.0725,-3.0747,-3.0801,-3.0821,-3.0899,-3.081,-3.0893,-3.0896,-3.0882,-3.1054,-3.1079,-3.1211,-3.0999,-3.1002,-3.1004,0,-3.0365,-3.0419,-3.0554,-3.06,-3.0628,-3.069,-3.0751,-3.0807,-3.0852,-3.086,-3.0902,-3.0891,-3.0972,-3.0912,-3.1023,-3.0963,-3.0998,-3.1013,-3.1018,-3.1025,-3.0957,-3.1066,-3.1253,-3.1273,-3.1033,-3.1031,-3.1029,0,-3.0473,-3.058,-3.0675,-3.0701,-3.0757,-3.0802,-3.0827,-3.0869,-3.0909,-3.0962,-3.0988,-3.105,-3.1084,-3.1132,-3.1138,-3.1094,-3.1251,-3.1191,-3.1259,-3.1259,-3.1292,-3.129,-3.1487,-3.1316,-3.1315,-3.1315,-3.1315,0,-3.0623,-3.0706,-3.0724,-3.0782,-3.0876,-3.0878,-3.097,-3.0992,-3.103,-3.1092,-3.1076,-3.1134,-3.114,-3.12,-3.1206,-3.1298,-3.1313,-3.1321,-3.1322,-3.1323,-3.1322,-3.1345,-3.1335,-3.132,-3.1319,-3.1318,-3.1317,0,-3.0759,-3.0774,-3.0876,-3.0922,-3.0935,-3.1002,-3.104,-3.1096,-3.1111,-3.119,-3.1209,-3.1232,-3.1302,-3.1314,-3.1396,-3.14,-3.1511,-3.1502,-3.1495,-3.1494,-3.1562,-3.1555,-3.178,-3.181,-3.1619,-3.1621,-3.1623,0,-3.0853,-3.0917,-3.097,-3.1011,-3.1039,-3.1105,-3.1146,-3.1152,-3.1195,-3.1253,-3.1302,-3.1371,-3.1427,-3.154,-3.1564,-3.1628,-3.162,-3.1695,-3.1629,-3.1628,-3.1621,-3.1617,-3.1623,-3.1707,-3.1709,-3.171,-3.1712,0,-3.1018,-3.1024,-3.1084,-3.1148,-3.1197,-3.1247,-3.1295,-3.1329,-3.1341,-3.1391,-3.1463,-3.1507,-3.1592,-3.1661,-3.1724,-3.175,-3.1733,-3.1733,-3.1752,-3.1753,-3.1746,-3.1751,-3.1529,-3.1727,-3.1725,-3.1724,-3.1723,-3.1723,-3.1136,-3.1192,-3.1239,-3.1307,-3.1344,-3.1389,-3.1444,-3.1467,-3.1528,-3.1598,-3.1598,-3.1678,-3.1723,-3.1807,-3.1837,-3.19,-3.1875,-3.1903,-3.191,-3.1917,-3.1923,-3.1738,-3.1911,-3.1911,-3.191,-3.191,-3.191,0,-3.1301,-3.133,-3.1393,-3.1461,-3.1515,-3.1496,-3.1548,-3.1594,-3.1665,-3.1709,-3.1765,-3.1849,-3.1916,-3.1946,-3.2013,-3.2057,-3.2051,-3.2074,-3.207,-3.2077,-3.1941,-3.1918,-3.2078,-3.2078,-3.2078,-3.2078,-3.2078,-3.2078,-3.1392,-3.1487,-3.1498,-3.1611,-3.164,-3.1719,-3.175,-3.1792,-3.1828,-3.1922,-3.1979,-3.1999,-3.2038,-3.2107,-3.2168,-3.2175,-3.22,-3.2227,-3.223,-3.2103,-3.2086,-3.207,-3.2048,-3.2232,-3.2233,-3.2361,-3.2362,-3.2363]},{"header":{"parameterUnit":"m.s-1","parameterCategory":1,"la1":30.2991,"la2":30.254,"lo1":-89.0895,"lo2":-89.0444,"dy":0.0017,"dx":0.0017,"nx":28,"ny":28,"refTime":"2023-10-28T03:00:00:Z","depth":0,"parameterNumber":3,"parameterNumberName":"V-component_of_WINDS"},"data":[0,0,0,0,0,0,0,0,0,0,0,0,0,0,0,0,0,0,0,0,0,0,0,0,0,0,0,0,0,0,0,0,0,0,0,0,0,0,0,0,0,0,0,0,0,0,0,0,0,0,0,0,0,0,0,0,0,0,-0.8717,-0.8717,0,-0.8732,-0.8732,-0.8732,-0.8731,-0.8731,-0.8731,-0.8731,-0.8746,-0.8746,-0.8747,0,0,0,0,0,0,0,0,0,0,0,0,0,-0.8687,-0.8688,-0.8717,-0.8717,-0.8717,-0.8732,-0.8732,-0.8732,-0.8731,-0.8731,-0.8731,-0.8731,-0.8746,-0.8746,-0.8747,0,0,0,0,0,0,0,0,0,0,0,0,0,-0.8701,-0.8688,-0.8717,-0.8719,-0.8719,-0.8732,-0.8732,-0.8732,-0.8731,-0.8731,-0.8731,-0.873,-0.8745,-0.8746,-0.8747,-0.8759,0,0,-0.875,-0.875,0,0,0,0,0,0,0,0,-0.87,-0.8702,-0.8718,-0.8719,-0.8719,-0.8729,-0.8727,-0.8741,-0.8731,-0.8727,-0.8731,-0.873,-0.8741,-0.8742,-0.8745,-0.876,-0.8761,-0.875,-0.8751,-0.8751,-0.8751,0,0,0,0,0,0,0,-0.8699,-0.8701,-0.8723,-0.8718,-0.8719,-0.8718,-0.872,-0.873,-0.8735,-0.8727,-0.8727,-0.8729,-0.8741,-0.8745,-0.8746,-0.8761,-0.875,-0.8751,-0.8751,-0.8752,-0.8785,-0.8785,0,0,0,0,0,0,-0.8698,-0.87,-0.8722,-0.8723,-0.8708,-0.8719,-0.8721,-0.8726,-0.8735,-0.8736,-0.8729,-0.8729,-0.8743,-0.8745,-0.8746,-0.876,-0.8751,-0.8752,-0.8752,-0.8784,-0.8785,-0.8785,0,0,0,0,0,0,-0.8697,-0.87,-0.8722,-0.8712,-0.8715,-0.872,-0.8726,-0.8727,-0.8731,-0.8737,-0.8738,-0.8732,-0.8743,-0.8745,-0.8756,-0.8761,-0.8752,-0.8753,-0.8784,-0.8785,-0.8785,-0.8789,0,0,0,0,0,0,-0.8696,-0.87,-0.8705,-0.8712,-0.8715,-0.8731,-0.8726,-0.8727,-0.8732,-0.8732,-0.874,-0.8741,-0.8743,-0.8754,-0.8757,-0.8762,-0.8754,-0.8784,-0.8784,-0.8785,-0.8788,-0.8789,-0.879,0,0,0,0,0,-0.8695,-0.8705,-0.8705,-0.8708,-0.8722,-0.8732,-0.8734,-0.8736,-0.8733,-0.8737,-0.8741,-0.874,-0.876,-0.8756,-0.8758,-0.8764,-0.8783,-0.8784,-0.8785,-0.8788,-0.8789,-0.879,0,0,0,0,0,0,-0.8699,-0.8706,-0.8706,-0.8719,-0.8725,-0.8732,-0.8738,-0.8737,-0.8744,-0.8744,-0.8746,-0.8748,-0.8758,-0.8762,-0.8757,-0.8775,-0.8771,-0.8772,-0.8772,-0.8774,-0.8775,-0.8773,-0.8755,0,0,0,0,0,-0.8701,-0.8709,-0.8715,-0.8726,-0.8729,-0.8733,-0.8737,-0.8738,-0.8744,-0.8747,-0.8751,-0.8757,-0.8764,-0.8769,-0.8776,-0.8788,-0.879,-0.8793,-0.8794,-0.8795,-0.8796,-0.8801,-0.8803,-0.8788,-0.8788,-0.8788,0,0,-0.8706,-0.8711,-0.8716,-0.8727,-0.8731,-0.8738,-0.8735,-0.8743,-0.8749,-0.8748,-0.8758,-0.8762,-0.8768,-0.8779,-0.8784,-0.8783,-0.88,-0.8796,-0.8797,-0.8797,-0.8802,-0.8804,-0.8805,-0.8788,-0.8788,-0.8788,0,0,-0.8719,-0.8724,-0.8732,-0.8737,-0.8743,-0.8746,-0.8748,-0.8754,-0.8757,-0.8767,-0.8766,-0.8772,-0.8785,-0.8789,-0.8793,-0.8806,-0.8805,-0.8808,-0.8813,-0.8818,-0.882,-0.8821,-0.8824,-0.8826,-0.8809,-0.8809,-0.8809,0,-0.8724,-0.8735,-0.8737,-0.8745,-0.8749,-0.8749,-0.8757,-0.8761,-0.877,-0.8773,-0.8771,-0.8786,-0.879,-0.8801,-0.8804,-0.8808,-0.881,-0.8807,-0.8819,-0.882,-0.8821,-0.8825,-0.8826,-0.8809,-0.8809,-0.8809,-0.8809,0,-0.8741,-0.8749,-0.8755,-0.8763,-0.8767,-0.8776,-0.8778,-0.8783,-0.8783,-0.8786,-0.8795,-0.88,-0.8808,-0.8811,-0.8812,-0.8822,-0.882,-0.8819,-0.8815,-0.8823,-0.8826,-0.8828,-0.881,-0.8809,-0.8809,-0.8809,0,0,-0.8757,-0.8765,-0.8767,-0.877,-0.8776,-0.8782,-0.879,-0.8797,-0.88,-0.8806,-0.8812,-0.8822,-0.882,-0.8824,-0.8825,-0.883,-0.8838,-0.8828,-0.8828,-0.8829,-0.8849,-0.885,-0.8851,-0.8838,-0.8838,-0.8838,-0.8848,0,-0.877,-0.8783,-0.8784,-0.8797,-0.8803,-0.8802,-0.8808,-0.8813,-0.8815,-0.882,-0.8823,-0.8829,-0.8827,-0.8829,-0.8834,-0.8836,-0.8842,-0.8836,-0.8843,-0.8843,-0.8841,-0.8853,-0.8855,-0.8864,-0.8849,-0.885,-0.885,0,-0.8787,-0.8792,-0.8804,-0.8809,-0.8811,-0.8817,-0.8823,-0.8829,-0.8833,-0.8834,-0.8838,-0.8838,-0.8846,-0.8841,-0.8851,-0.8846,-0.8849,-0.8851,-0.8851,-0.8852,-0.8847,-0.8854,-0.8867,-0.8868,-0.8852,-0.8852,-0.8852,0,-0.8796,-0.8806,-0.8815,-0.8818,-0.8823,-0.8827,-0.8829,-0.8834,-0.8837,-0.8842,-0.8844,-0.885,-0.8853,-0.8858,-0.8859,-0.8856,-0.8868,-0.8864,-0.8869,-0.8869,-0.8871,-0.8871,-0.8885,-0.8874,-0.8874,-0.8874,-0.8874,0,-0.881,-0.8818,-0.8819,-0.8824,-0.8832,-0.8833,-0.8841,-0.8843,-0.8847,-0.8852,-0.8851,-0.8856,-0.8858,-0.8863,-0.8864,-0.8871,-0.8872,-0.8873,-0.8873,-0.8873,-0.8873,-0.8875,-0.8874,-0.8874,-0.8874,-0.8874,-0.8874,0,-0.8822,-0.8824,-0.8833,-0.8836,-0.8838,-0.8843,-0.8846,-0.8851,-0.8852,-0.8859,-0.8861,-0.8863,-0.8869,-0.887,-0.8877,-0.8878,-0.8886,-0.8886,-0.8884,-0.8884,-0.8889,-0.8888,-0.8904,-0.8906,-0.8894,-0.8894,-0.8894,0,-0.8831,-0.8836,-0.884,-0.8844,-0.8846,-0.8851,-0.8855,-0.8855,-0.8859,-0.8864,-0.8867,-0.8873,-0.8877,-0.8886,-0.8889,-0.8894,-0.8893,-0.8898,-0.8894,-0.8893,-0.8892,-0.8892,-0.8892,-0.8899,-0.8899,-0.8899,-0.8899,0,-0.8846,-0.8846,-0.885,-0.8855,-0.8859,-0.8863,-0.8866,-0.8869,-0.887,-0.8874,-0.8879,-0.8883,-0.8889,-0.8894,-0.8899,-0.8901,-0.89,-0.8901,-0.8902,-0.8902,-0.89,-0.89,-0.8886,-0.89,-0.89,-0.89,-0.89,-0.89,-0.8856,-0.886,-0.8863,-0.8868,-0.8871,-0.8874,-0.8878,-0.888,-0.8884,-0.8889,-0.8889,-0.8895,-0.8898,-0.8904,-0.8907,-0.8911,-0.8909,-0.8911,-0.8912,-0.8912,-0.8912,-0.89,-0.8912,-0.8912,-0.8912,-0.8912,-0.8912,0,-0.887,-0.8871,-0.8876,-0.8881,-0.8884,-0.8882,-0.8886,-0.8889,-0.8894,-0.8897,-0.8901,-0.8907,-0.8911,-0.8913,-0.8918,-0.8921,-0.892,-0.8922,-0.8922,-0.8922,-0.8914,-0.8912,-0.8922,-0.8922,-0.8922,-0.8922,-0.8922,-0.8922,-0.8878,-0.8885,-0.8885,-0.8892,-0.8894,-0.8899,-0.8901,-0.8904,-0.8906,-0.8912,-0.8916,-0.8917,-0.8919,-0.8924,-0.8928,-0.8928,-0.893,-0.8931,-0.8932,-0.8924,-0.8923,-0.8922,-0.892,-0.8932,-0.8932,-0.8939,-0.8939,-0.894]}]]